Home   Weather   Caen   Past weeks

Flag for France Past Weather in Caen, Lower Normandy, France — Yesterday and Last 2 Weeks

Now
46 °F

Partly sunny.


Feels Like: 41 °F
Forecast: 34 / 50 °F
Wind: 10 mph from North

Location: Caen Airport

Current Time: Apr 25, 2017 at 1:01:33 pm

Latest Report: Apr 25, 2017 at 12:30 pm


Visibility: N/A

Pressure: 29.95 "Hg

Humidity: 53%

Dew Point: 30 °F

Location of CaenLocation

Past Weather in Caen — Graph

°F

Caen Temperature Yesterday

Maximum temperature yesterday: 61 °F (at 4:00 pm)
Minimum temperature yesterday: 34 °F (at 6:30 am)
Average temperature yesterday: 49 °F

High & Low Weather Summary for the Past Weeks

 TemperatureHumidityPressure
High61 °F (Apr 21, 2:30 pm)100% (Apr 11, 2:00 am)30.63 "Hg (Apr 11, 2:00 am)
Low32 °F (Apr 20, 6:00 am)33% (Apr 21, 12:30 pm)29.89 "Hg (Apr 25, 1:30 am)
Average49 °F75%30.28 "Hg
* Reported Apr 10 11:00 am — Apr 25 11:30 am, Caen, Weather by CustomWeather, © 2017

Note: Actual official high and low records may vary slightly from our data, if they occured in-between our weather recording intervals... More about our weather records

Advertising

Caen Weather History for the Previous 24 Hours

Scroll right to see more
 ConditionsComfort  
Time TempWeatherWind HumidityBarometerVisibility
11:30 am
Tue, Apr 25
46 °FPassing clouds.10 mph50%29.95 "HgN/A
11:00 am45 °FPassing clouds.9 mph49%29.95 "HgN/A
10:30 am46 °FPassing clouds.9 mph50%29.95 "HgN/A
10:00 am46 °FPassing clouds.9 mph50%29.95 "HgN/A
9:30 am45 °FScattered clouds.8 mph66%29.95 "HgN/A
9:00 am43 °FPassing clouds.7 mph61%29.95 "HgN/A
8:30 am43 °FPassing clouds.7 mph66%29.95 "HgN/A
7:30 am43 °FPassing clouds.6 mph61%29.95 "HgN/A
7:00 am43 °FPassing clouds.8 mph61%29.95 "HgN/A
6:30 am43 °FPassing clouds.6 mph66%29.92 "HgN/A
5:30 am45 °FMostly cloudy.6 mph71%29.92 "HgN/A
4:30 am45 °FLight rain. Mostly cloudy.10 mph76%29.92 "HgN/A
3:30 am48 °FLight rain. Overcast.9 mph76%29.92 "HgN/A
3:00 am50 °FLight rain. Overcast.7 mph71%29.92 "HgN/A
2:30 am50 °FMostly cloudy.9 mph76%29.89 "HgN/A
2:00 am50 °FPassing clouds.8 mph82%29.89 "HgN/A
1:30 am48 °FPartly cloudy.8 mph87%29.89 "HgN/A
12:30 am50 °FClear.9 mph82%29.92 "Hg10 mi
12:00 am50 °FClear.9 mph82%29.92 "Hg10 mi
11:30 pm
Mon, Apr 24
50 °FMostly cloudy.8 mph82%29.92 "HgN/A
11:00 pm50 °FClear.8 mph82%29.92 "Hg10 mi
10:30 pm48 °FClear.8 mph82%29.95 "Hg10 mi
10:00 pm48 °FClear.9 mph76%29.95 "Hg10 mi
9:30 pm50 °FClear.3 mph76%29.92 "Hg10 mi
9:00 pm52 °FScattered clouds.3 mph72%29.95 "HgN/A
8:30 pm54 °FMostly cloudy.5 mph67%29.95 "HgN/A
8:00 pm54 °FMostly cloudy.6 mph67%29.95 "HgN/A
7:30 pm55 °FOvercast.6 mph63%29.95 "HgN/A
7:00 pm55 °FMostly cloudy.7 mph63%29.95 "HgN/A
6:30 pm57 °FPartly sunny.7 mph59%29.95 "HgN/A
6:00 pm57 °FPassing clouds.8 mph59%29.98 "HgN/A
5:30 pm59 °FOvercast.8 mph59%29.98 "HgN/A
5:00 pm59 °FMostly cloudy.10 mph55%29.98 "HgN/A
4:30 pm61 °FPassing clouds.12 mph52%29.98 "HgN/A
4:00 pm61 °FSunny.9 mph45%30.01 "Hg10 mi
3:30 pm59 °FPartly sunny.6 mph48%30.01 "HgN/A
3:00 pm59 °FPartly sunny.9 mph45%30.01 "HgN/A
2:30 pm59 °FPartly sunny.9 mph48%30.04 "HgN/A
2:00 pm59 °FBroken clouds.7 mph51%30.04 "HgN/A
1:30 pm59 °FPassing clouds.6 mph51%30.04 "HgN/A
1:00 pm59 °FPassing clouds.7 mph51%30.07 "HgN/A
Weather by CustomWeather, © 2017

See weather overviewHow to use our weather pages